| time (UTC) | temp F | wind direction | speed MPH | gust MPH | rain 1hr in | rain 24hr in | rain mn in | humidity % | barometer mb |
| 20260507145540 | 61 | 330 | 4.0 | 8.0 | 0.00 | 0.04 | 0.00 | 37 | 1017.8 |
| 20260507145041 | 60 | 70 | 4.0 | 8.0 | 0.00 | 0.04 | 0.00 | 38 | 1017.8 |
| 20260507144539 | 60 | 248 | 4.0 | 10.0 | 0.00 | 0.04 | 0.00 | 38 | 1017.8 |
| 20260507144037 | 60 | 342 | 0.0 | 8.0 | 0.00 | 0.04 | 0.00 | 39 | 1017.8 |
| 20260507143539 | 60 | 319 | 5.0 | 7.0 | 0.00 | 0.04 | 0.00 | 41 | 1017.8 |
| 20260507143036 | 59 | 303 | 4.0 | 8.0 | 0.00 | 0.04 | 0.00 | 46 | 1017.8 |
| 20260507142531 | 58 | 12 | 7.0 | 8.0 | 0.00 | 0.04 | 0.00 | 46 | 1017.8 |
| 20260507142032 | 59 | 315 | 5.0 | 8.0 | 0.00 | 0.04 | 0.00 | 47 | 1017.8 |
| 20260507141530 | 59 | 339 | 4.0 | 9.0 | 0.00 | 0.04 | 0.00 | 48 | 1017.8 |
| 20260507141027 | 59 | 341 | 5.0 | 8.0 | 0.00 | 0.04 | 0.00 | 49 | 1017.8 |
| 20260507140529 | 59 | 331 | 3.0 | 7.0 | 0.00 | 0.04 | 0.00 | 53 | 1017.8 |
| 20260507135529 | 58 | 14 | 0.0 | 6.0 | 0.00 | 0.04 | 0.00 | 61 | 1017.8 |
| 20260507135032 | 58 | 356 | 3.0 | 8.0 | 0.00 | 0.04 | 0.00 | 64 | 1017.8 |
| 20260507134022 | 57 | 8 | 7.0 | 7.0 | 0.00 | 0.04 | 0.00 | 66 | 1017.8 |
| 20260507132520 | 57 | 346 | 4.0 | 6.0 | 0.00 | 0.04 | 0.00 | 67 | 1017.8 |
| 20260507132023 | 57 | 328 | 4.0 | 6.0 | 0.00 | 0.04 | 0.00 | 67 | 1017.8 |
| 20260507131018 | 57 | 312 | 0.0 | 4.0 | 0.00 | 0.04 | 0.00 | 68 | 1017.8 |
| 20260507130018 | 57 | 311 | 0.0 | 0.0 | 0.00 | 0.04 | 0.00 | 69 | 1017.8 |
| 20260507125516 | 57 | 311 | 0.0 | 0.0 | 0.00 | 0.04 | 0.00 | 70 | 1017.8 |
| 20260507125017 | 57 | 311 | 0.0 | 0.0 | 0.00 | 0.04 | 0.00 | 71 | 1017.8 |
| 20260507124519 | 57 | 311 | 0.0 | 0.0 | 0.00 | 0.04 | 0.00 | 71 | 1017.8 |
| 20260507124018 | 57 | 311 | 0.0 | 0.0 | 0.00 | 0.04 | 0.00 | 71 | 1017.8 |
| 20260507123520 | 56 | 311 | 0.0 | 3.0 | 0.00 | 0.04 | 0.00 | 71 | 1017.8 |
| 20260507123022 | 56 | 311 | 0.0 | 0.0 | 0.00 | 0.04 | 0.00 | 72 | 1017.8 |
| 20260507122520 | 56 | 311 | 0.0 | 0.0 | 0.00 | 0.04 | 0.00 | 72 | 1017.8 |
| 20260507122022 | 56 | 311 | 0.0 | 4.0 | 0.00 | 0.04 | 0.00 | 72 | 1017.8 |
| 20260507121524 | 56 | 311 | 0.0 | 4.0 | 0.00 | 0.04 | 0.00 | 72 | 1017.8 |
| 20260507121023 | 56 | 311 | 0.0 | 5.0 | 0.00 | 0.04 | 0.00 | 72 | 1017.8 |
| 20260507120524 | 56 | 311 | 4.0 | 4.0 | 0.00 | 0.04 | 0.00 | 72 | 1017.8 |
| 20260507120026 | 56 | 313 | 0.0 | 4.0 | 0.00 | 0.04 | 0.00 | 72 | 1017.8 |
| 20260507115525 | 56 | 313 | 0.0 | 3.0 | 0.00 | 0.04 | 0.00 | 72 | 1017.8 |
| 20260507115028 | 56 | 313 | 0.0 | 0.0 | 0.00 | 0.04 | 0.00 | 72 | 1017.8 |
| 20260507114529 | 56 | 313 | 0.0 | 0.0 | 0.00 | 0.04 | 0.00 | 72 | 1017.8 |
| 20260507114027 | 56 | 313 | 0.0 | 0.0 | 0.00 | 0.04 | 0.00 | 72 | 1017.8 |
| 20260507113530 | 56 | 313 | 0.0 | 0.0 | 0.00 | 0.04 | 0.00 | 71 | 1017.8 |
| 20260507113031 | 56 | 313 | 0.0 | 0.0 | 0.00 | 0.04 | 0.00 | 71 | 1017.8 |
| 20260507112530 | 56 | 313 | 0.0 | 0.0 | 0.00 | 0.04 | 0.00 | 71 | 1017.8 |
| 20260507112032 | 56 | 313 | 0.0 | 0.0 | 0.00 | 0.04 | 0.00 | 71 | 1016.8 |
| 20260507111533 | 56 | 313 | 0.0 | 5.0 | 0.00 | 0.04 | 0.00 | 71 | 1016.8 |
| 20260507111032 | 56 | 313 | 3.0 | 5.0 | 0.00 | 0.04 | 0.00 | 71 | 1016.8 |
| 20260507110534 | 56 | 313 | 0.0 | 6.0 | 0.00 | 0.04 | 0.00 | 70 | 1016.8 |
| 20260507110036 | 56 | 312 | 4.0 | 6.0 | 0.00 | 0.04 | 0.00 | 70 | 1016.8 |
| 20260507105535 | 56 | 303 | 0.0 | 5.0 | 0.00 | 0.04 | 0.00 | 70 | 1016.8 |
| 20260507105036 | 56 | 303 | 3.0 | 6.0 | 0.00 | 0.04 | 0.00 | 70 | 1016.8 |
| 20260507104538 | 56 | 302 | 3.0 | 5.0 | 0.00 | 0.04 | 0.00 | 70 | 1016.8 |
| 20260507104037 | 56 | 301 | 3.0 | 5.0 | 0.00 | 0.04 | 0.00 | 70 | 1016.8 |
| 20260507103539 | 56 | 335 | 3.0 | 5.0 | 0.00 | 0.04 | 0.00 | 70 | 1016.8 |
| 20260507103040 | 56 | 334 | 4.0 | 6.0 | 0.00 | 0.04 | 0.00 | 70 | 1016.8 |
| 20260507102540 | 56 | 335 | 0.0 | 5.0 | 0.00 | 0.04 | 0.00 | 70 | 1016.8 |
| 20260507102041 | 56 | 335 | 3.0 | 6.0 | 0.00 | 0.04 | 0.00 | 69 | 1016.8 |
| 20260507101543 | 56 | 336 | 4.0 | 5.0 | 0.00 | 0.04 | 0.00 | 69 | 1016.8 |
| 20260507101041 | 56 | 326 | 3.0 | 4.0 | 0.00 | 0.04 | 0.00 | 68 | 1016.8 |
| 20260507100543 | 56 | 329 | 3.0 | 4.0 | 0.00 | 0.04 | 0.00 | 68 | 1015.8 |
| 20260507100045 | 56 | 356 | 3.0 | 4.0 | 0.00 | 0.04 | 0.00 | 67 | 1015.8 |
| 20260507095545 | 56 | 34 | 0.0 | 4.0 | 0.00 | 0.04 | 0.00 | 67 | 1015.8 |
| 20260507094547 | 56 | 53 | 3.0 | 0.0 | 0.00 | 0.04 | 0.00 | 66 | 1015.8 |
| 20260507093548 | 56 | 53 | 0.0 | 4.0 | 0.00 | 0.04 | 0.00 | 66 | 1015.8 |
| 20260507093050 | 56 | 53 | 3.0 | 5.0 | 0.00 | 0.04 | 0.00 | 65 | 1015.8 |
| 20260507092548 | 56 | 54 | 4.0 | 5.0 | 0.00 | 0.04 | 0.00 | 65 | 1015.8 |
| 20260507092045 | 56 | 57 | 3.0 | 4.0 | 0.00 | 0.04 | 0.00 | 64 | 1015.8 |
| 20260507091547 | 56 | 59 | 3.0 | 4.0 | 0.00 | 0.04 | 0.00 | 64 | 1015.8 |
| 20260507091046 | 56 | 59 | 0.0 | 0.0 | 0.00 | 0.04 | 0.00 | 64 | 1015.8 |
| 20260507090549 | 56 | 59 | 0.0 | 5.0 | 0.00 | 0.04 | 0.00 | 63 | 1015.8 |
| 20260507090050 | 56 | 62 | 4.0 | 4.0 | 0.00 | 0.04 | 0.00 | 63 | 1015.8 |
| 20260507085548 | 56 | 66 | 3.0 | 7.0 | 0.00 | 0.04 | 0.00 | 62 | 1015.8 |
| 20260507085050 | 56 | 13 | 4.0 | 7.0 | 0.00 | 0.04 | 0.00 | 62 | 1014.8 |
| 20260507084552 | 56 | 8 | 5.0 | 8.0 | 0.00 | 0.04 | 0.00 | 61 | 1014.8 |
| 20260507084050 | 56 | 18 | 6.0 | 8.0 | 0.00 | 0.04 | 0.00 | 60 | 1014.8 |
| 20260507083552 | 56 | 37 | 7.0 | 10.0 | 0.00 | 0.04 | 0.00 | 60 | 1014.8 |
| 20260507082544 | 57 | 26 | 7.0 | 9.0 | 0.00 | 0.04 | 0.00 | 60 | 1014.8 |
| 20260507082041 | 57 | 33 | 6.0 | 7.0 | 0.00 | 0.04 | 0.00 | 59 | 1015.8 |
| 20260507081027 | 57 | 33 | 5.0 | 7.0 | 0.00 | 0.04 | 0.00 | 58 | 1015.8 |
| 20260507080524 | 57 | 23 | 4.0 | 6.0 | 0.00 | 0.04 | 0.00 | 57 | 1014.8 |
| 20260507075016 | 57 | 44 | 4.0 | 8.0 | 0.00 | 0.04 | 0.00 | 54 | 1014.8 |
| 20260507074008 | 57 | 312 | 7.0 | 10.0 | 0.00 | 0.04 | 0.00 | 54 | 1014.8 |
| 20260507073509 | 58 | 43 | 7.0 | 9.0 | 0.00 | 0.04 | 0.00 | 54 | 1014.8 |
| 20260507072002 | 58 | 47 | 4.0 | 7.0 | 0.00 | 0.04 | 0.00 | 53 | 1014.8 |
| 20260507071504 | 58 | 7 | 5.0 | 8.0 | 0.00 | 0.04 | 0.00 | 53 | 1014.8 |
| 20260507070504 | 58 | 16 | 4.0 | 10.0 | 0.00 | 0.04 | 0.00 | 52 | 1014.8 |
| 20260507070010 | 58 | 299 | 6.0 | 8.0 | 0.00 | 0.04 | 0.00 | 51 | 1014.8 |
| 20260507065505 | 58 | 339 | 7.0 | 8.0 | 0.00 | 0.04 | 0.00 | 51 | 1014.8 |
| 20260507065007 | 58 | 51 | 4.0 | 9.0 | 0.00 | 0.04 | 0.00 | 50 | 1014.8 |
| 20260507064508 | 58 | 327 | 3.0 | 7.0 | 0.00 | 0.04 | 0.00 | 50 | 1014.8 |
| 20260507064007 | 58 | 345 | 5.0 | 10.0 | 0.00 | 0.00 | 0.04 | 50 | 1014.8 |
| 20260507063504 | 58 | 39 | 4.0 | 7.0 | 0.00 | 0.00 | 0.04 | 50 | 1014.8 |
| 20260507063006 | 58 | 9 | 4.0 | 7.0 | 0.00 | 0.00 | 0.04 | 49 | 1014.8 |
| 20260507062006 | 58 | 116 | 4.0 | 7.0 | 0.00 | 0.00 | 0.04 | 48 | 1014.8 |
| 20260507061002 | 58 | 157 | 5.0 | 8.0 | 0.00 | 0.00 | 0.04 | 48 | 1014.8 |
| 20260507060504 | 58 | 12 | 4.0 | 9.0 | 0.00 | 0.00 | 0.04 | 48 | 1014.8 |
| 20260507055505 | 59 | 74 | 5.0 | 8.0 | 0.00 | 0.00 | 0.04 | 48 | 1014.8 |
| 20260507055007 | 59 | 113 | 4.0 | 9.0 | 0.00 | 0.00 | 0.04 | 48 | 1014.8 |
| 20260507054508 | 59 | 51 | 5.0 | 8.0 | 0.00 | 0.00 | 0.04 | 48 | 1014.8 |
| 20260507054007 | 59 | 53 | 6.0 | 9.0 | 0.00 | 0.00 | 0.04 | 47 | 1014.8 |
| 20260507053510 | 59 | 44 | 4.0 | 8.0 | 0.00 | 0.00 | 0.04 | 48 | 1014.8 |
| 20260507053011 | 59 | 271 | 3.0 | 7.0 | 0.00 | 0.00 | 0.04 | 47 | 1014.8 |
| 20260507052510 | 59 | 37 | 3.0 | 7.0 | 0.00 | 0.00 | 0.04 | 47 | 1014.8 |
| 20260507052011 | 59 | 67 | 4.0 | 7.0 | 0.00 | 0.00 | 0.04 | 47 | 1014.8 |
| 20260507051513 | 59 | 290 | 5.0 | 7.0 | 0.00 | 0.00 | 0.04 | 47 | 1014.8 |
| 20260507051012 | 59 | 45 | 5.0 | 7.0 | 0.00 | 0.00 | 0.04 | 47 | 1014.8 |
| 20260507050514 | 59 | 64 | 4.0 | 7.0 | 0.00 | 0.00 | 0.04 | 47 | 1014.8 |
| 20260507050016 | 59 | 313 | 3.0 | 7.0 | 0.00 | 0.00 | 0.04 | 46 | 1014.8 |
| 20260507045514 | 59 | 262 | 4.0 | 7.0 | 0.00 | 0.00 | 0.04 | 46 | 1014.8 |
| 20260507045016 | 59 | 25 | 4.0 | 8.0 | 0.00 | 0.00 | 0.04 | 46 | 1014.8 |
| 20260507044518 | 59 | 74 | 4.0 | 10.0 | 0.00 | 0.00 | 0.04 | 45 | 1014.8 |
| 20260507044017 | 60 | 77 | 5.0 | 10.0 | 0.00 | 0.00 | 0.04 | 45 | 1014.8 |
| 20260507043020 | 60 | 344 | 5.0 | 10.0 | 0.00 | 0.00 | 0.04 | 45 | 1014.8 |
| 20260507042519 | 60 | 238 | 7.0 | 10.0 | 0.00 | 0.00 | 0.04 | 45 | 1014.8 |
| 20260507042021 | 60 | 303 | 6.0 | 9.0 | 0.00 | 0.00 | 0.04 | 44 | 1014.8 |
| 20260507041523 | 60 | 171 | 6.0 | 10.0 | 0.00 | 0.00 | 0.04 | 44 | 1014.8 |
| 20260507040516 | 60 | 20 | 7.0 | 10.0 | 0.00 | 0.00 | 0.04 | 44 | 1014.8 |
| 20260507040016 | 61 | 332 | 4.0 | 12.0 | 0.00 | 0.00 | 0.04 | 44 | 1014.8 |
| 20260507035510 | 61 | 36 | 9.0 | 11.0 | 0.00 | 0.00 | 0.04 | 44 | 1014.8 |
| 20260507035013 | 61 | 30 | 8.0 | 12.0 | 0.00 | 0.00 | 0.04 | 44 | 1014.8 |
| 20260507034509 | 61 | 306 | 7.0 | 13.0 | 0.00 | 0.00 | 0.04 | 44 | 1014.8 |
| 20260507034007 | 61 | 0 | 5.0 | 9.0 | 0.00 | 0.00 | 0.04 | 44 | 1014.8 |
| 20260507033504 | 61 | 38 | 5.0 | 10.0 | 0.00 | 0.00 | 0.04 | 44 | 1014.8 |
| 20260507032506 | 61 | 57 | 7.0 | 10.0 | 0.00 | 0.00 | 0.04 | 44 | 1014.8 |
| 20260507031508 | 62 | 343 | 6.0 | 12.0 | 0.00 | 0.00 | 0.04 | 44 | 1014.8 |
| 20260507030510 | 62 | 351 | 9.0 | 13.0 | 0.00 | 0.00 | 0.04 | 43 | 1014.8 |
| 20260507030011 | 62 | 66 | 10.0 | 13.0 | 0.00 | 0.00 | 0.04 | 43 | 1014.8 |
| 20260507025509 | 62 | 24 | 8.0 | 11.0 | 0.00 | 0.00 | 0.04 | 43 | 1014.8 |
| 20260507025011 | 62 | 21 | 6.0 | 9.0 | 0.00 | 0.00 | 0.04 | 44 | 1013.8 |
| 20260507024508 | 62 | 53 | 7.0 | 10.0 | 0.00 | 0.00 | 0.04 | 44 | 1013.8 |
| 20260507024007 | 62 | 30 | 6.0 | 9.0 | 0.00 | 0.00 | 0.04 | 45 | 1013.8 |
| 20260507023509 | 62 | 35 | 8.0 | 10.0 | 0.00 | 0.00 | 0.04 | 45 | 1013.8 |
| 20260507023010 | 62 | 86 | 5.0 | 8.0 | 0.00 | 0.00 | 0.04 | 45 | 1013.8 |
| 20260507022509 | 62 | 44 | 5.0 | 10.0 | 0.00 | 0.00 | 0.04 | 45 | 1013.8 |
| 20260507022011 | 62 | 45 | 7.0 | 9.0 | 0.00 | 0.00 | 0.04 | 46 | 1013.8 |
| 20260507021513 | 62 | 185 | 5.0 | 9.0 | 0.00 | 0.00 | 0.04 | 46 | 1013.8 |
| 20260507021012 | 62 | 98 | 5.0 | 11.0 | 0.00 | 0.00 | 0.04 | 46 | 1013.8 |
| 20260507020513 | 62 | 61 | 7.0 | 10.0 | 0.00 | 0.00 | 0.04 | 46 | 1012.8 |
| 20260507020015 | 62 | 7 | 7.0 | 10.0 | 0.00 | 0.00 | 0.04 | 46 | 1012.8 |
| 20260507015514 | 62 | 13 | 6.0 | 10.0 | 0.00 | 0.00 | 0.04 | 45 | 1012.8 |
| 20260507015015 | 62 | 37 | 7.0 | 13.0 | 0.00 | 0.00 | 0.04 | 45 | 1012.8 |
| 20260507014517 | 62 | 42 | 8.0 | 12.0 | 0.00 | 0.00 | 0.04 | 44 | 1012.8 |
| 20260507014017 | 62 | 312 | 9.0 | 12.0 | 0.00 | 0.00 | 0.04 | 45 | 1012.8 |
| 20260507013519 | 62 | 37 | 7.0 | 14.0 | 0.00 | 0.00 | 0.04 | 45 | 1012.8 |
| 20260507012015 | 63 | 343 | 7.0 | 9.0 | 0.00 | 0.00 | 0.04 | 51 | 1011.8 |
| 20260507011017 | 63 | 68 | 5.0 | 8.0 | 0.00 | 0.00 | 0.04 | 52 | 1011.8 |
| 20260507010518 | 63 | 135 | 4.0 | 7.0 | 0.00 | 0.00 | 0.04 | 53 | 1011.8 |
| 20260507010020 | 63 | 84 | 4.0 | 8.0 | 0.00 | 0.00 | 0.04 | 52 | 1011.8 |
| 20260507005020 | 63 | 346 | 4.0 | 5.0 | 0.00 | 0.00 | 0.04 | 53 | 1011.8 |
| 20260507004522 | 63 | 112 | 3.0 | 4.0 | 0.00 | 0.00 | 0.04 | 52 | 1011.8 |
| 20260507004016 | 63 | 332 | 3.0 | 5.0 | 0.00 | 0.00 | 0.04 | 51 | 1011.8 |
| 20260507003518 | 63 | 319 | 0.0 | 5.0 | 0.00 | 0.00 | 0.04 | 50 | 1011.8 |
| 20260507002518 | 63 | 312 | 0.0 | 4.0 | 0.00 | 0.00 | 0.04 | 49 | 1011.8 |
| 20260507002020 | 64 | 317 | 0.0 | 5.0 | 0.00 | 0.00 | 0.04 | 48 | 1011.8 |
| 20260507001523 | 63 | 316 | 3.0 | 4.0 | 0.00 | 0.00 | 0.04 | 48 | 1011.8 |
| 20260507001016 | 64 | 322 | 0.0 | 5.0 | 0.00 | 0.00 | 0.04 | 48 | 1011.8 |
| 20260507000421 | 64 | 318 | 0.0 | 4.0 | 0.00 | 0.00 | 0.04 | 48 | 1011.8 |
| 20260506235924 | 63 | 76 | 3.0 | 6.0 | 0.00 | 0.00 | 0.04 | 47 | 1011.8 |
| 20260506234919 | 63 | 67 | 4.0 | 7.0 | 0.00 | 0.00 | 0.04 | 48 | 1011.8 |
| 20260506234421 | 64 | 229 | 0.0 | 7.0 | 0.00 | 0.00 | 0.04 | 49 | 1011.8 |
| 20260506233919 | 63 | 83 | 0.0 | 7.0 | 0.00 | 0.00 | 0.04 | 49 | 1011.8 |
| 20260506233421 | 63 | 25 | 3.0 | 6.0 | 0.00 | 0.00 | 0.04 | 51 | 1010.8 |
| 20260506230919 | 62 | 241 | 0.0 | 6.0 | 0.00 | 0.00 | 0.04 | 51 | 1010.8 |
| 20260506230421 | 62 | 148 | 4.0 | 6.0 | 0.00 | 0.00 | 0.04 | 51 | 1010.8 |
| 20260506225922 | 62 | 304 | 4.0 | 7.0 | 0.00 | 0.00 | 0.04 | 52 | 1010.8 |
| 20260506225419 | 62 | 293 | 4.0 | 7.0 | 0.00 | 0.00 | 0.04 | 52 | 1010.8 |
| 20260506224920 | 62 | 220 | 5.0 | 7.0 | 0.00 | 0.00 | 0.04 | 54 | 1010.8 |
| 20260506224422 | 62 | 319 | 3.0 | 5.0 | 0.00 | 0.00 | 0.04 | 55 | 1010.8 |
| 20260506223920 | 62 | 26 | 5.0 | 7.0 | 0.00 | 0.00 | 0.04 | 56 | 1010.8 |
| 20260506223417 | 62 | 49 | 5.0 | 7.0 | 0.00 | 0.00 | 0.04 | 58 | 1011.8 |
| 20260506221919 | 61 | 11 | 4.0 | 5.0 | 0.00 | 0.00 | 0.04 | 55 | 1010.8 |
| 20260506221422 | 61 | 69 | 0.0 | 7.0 | 0.00 | 0.00 | 0.04 | 56 | 1010.8 |
| 20260506220920 | 61 | 21 | 0.0 | 7.0 | 0.00 | 0.00 | 0.04 | 55 | 1010.8 |
| 20260506220421 | 61 | 40 | 3.0 | 10.0 | 0.00 | 0.00 | 0.04 | 51 | 1010.8 |
| 20260506215422 | 61 | 346 | 7.0 | 14.0 | 0.00 | 0.00 | 0.04 | 45 | 1010.8 |
| 20260506214924 | 62 | 24 | 7.0 | 10.0 | 0.00 | 0.00 | 0.04 | 40 | 1010.8 |
| 20260506214426 | 62 | 12 | 7.0 | 10.0 | 0.00 | 0.00 | 0.04 | 38 | 1010.8 |
| 20260506213922 | 62 | 14 | 7.0 | 11.0 | 0.00 | 0.00 | 0.04 | 39 | 1010.8 |
| 20260506213419 | 62 | 22 | 7.0 | 12.0 | 0.00 | 0.00 | 0.04 | 39 | 1011.8 |
| 20260506212920 | 62 | 11 | 6.0 | 9.0 | 0.00 | 0.00 | 0.04 | 39 | 1011.8 |
| 20260506211918 | 62 | 319 | 5.0 | 10.0 | 0.00 | 0.00 | 0.04 | 40 | 1010.8 |
| 20260506211420 | 62 | 27 | 7.0 | 11.0 | 0.00 | 0.00 | 0.04 | 39 | 1010.8 |
| 20260506210917 | 62 | 42 | 7.0 | 10.0 | 0.00 | 0.00 | 0.04 | 39 | 1010.8 |
| 20260506205920 | 62 | 351 | 3.0 | 6.0 | 0.00 | 0.00 | 0.04 | 39 | 1010.8 |
| 20260506205416 | 61 | 356 | 6.0 | 11.0 | 0.00 | 0.00 | 0.04 | 40 | 1010.8 |
| 20260506204913 | 61 | 13 | 5.0 | 9.0 | 0.00 | 0.00 | 0.04 | 40 | 1011.8 |
| 20260506203914 | 61 | 170 | 5.0 | 10.0 | 0.00 | 0.00 | 0.04 | 40 | 1011.8 |
| 20260506203411 | 61 | 301 | 4.0 | 11.0 | 0.00 | 0.00 | 0.04 | 41 | 1011.8 |
| 20260506202912 | 60 | 345 | 7.0 | 10.0 | 0.00 | 0.00 | 0.04 | 40 | 1011.8 |
| 20260506202411 | 60 | 3 | 8.0 | 11.0 | 0.00 | 0.00 | 0.04 | 41 | 1011.8 |
| 20260506201913 | 60 | 6 | 5.0 | 10.0 | 0.00 | 0.00 | 0.04 | 41 | 1011.8 |
| 20260506201415 | 60 | 334 | 5.0 | 10.0 | 0.00 | 0.00 | 0.04 | 43 | 1011.8 |
| 20260506200913 | 60 | 15 | 3.0 | 9.0 | 0.00 | 0.00 | 0.04 | 42 | 1011.8 |
| 20260506200410 | 60 | 333 | 4.0 | 8.0 | 0.00 | 0.00 | 0.04 | 43 | 1011.8 |
| 20260506195907 | 60 | 347 | 5.0 | 8.0 | 0.00 | 0.00 | 0.04 | 45 | 1011.8 |
| 20260506195406 | 59 | 17 | 5.0 | 9.0 | 0.00 | 0.00 | 0.04 | 44 | 1011.8 |
| 20260506194858 | 59 | 322 | 4.0 | 9.0 | 0.00 | 0.00 | 0.04 | 44 | 1012.8 |
| 20260506194359 | 59 | 26 | 6.0 | 7.0 | 0.00 | 0.00 | 0.04 | 46 | 1012.8 |
| 20260506193858 | 58 | 292 | 5.0 | 7.0 | 0.00 | 0.00 | 0.04 | 47 | 1012.8 |
| 20260506193400 | 57 | 29 | 7.0 | 10.0 | 0.00 | 0.00 | 0.04 | 47 | 1012.8 |
| 20260506192902 | 58 | 356 | 5.0 | 7.0 | 0.00 | 0.00 | 0.04 | 47 | 1012.8 |
| 20260506192355 | 58 | 312 | 4.0 | 9.0 | 0.00 | 0.00 | 0.04 | 48 | 1012.8 |
| 20260506190853 | 58 | 20 | 5.0 | 8.0 | 0.00 | 0.00 | 0.04 | 50 | 1012.8 |
| 20260506190355 | 57 | 31 | 6.0 | 7.0 | 0.00 | 0.00 | 0.04 | 50 | 1012.8 |
| 20260506185351 | 57 | 48 | 4.0 | 9.0 | 0.00 | 0.00 | 0.04 | 52 | 1012.8 |
| 20260506184355 | 57 | 37 | 3.0 | 7.0 | 0.00 | 0.00 | 0.04 | 53 | 1012.8 |
| 20260506183854 | 56 | 28 | 5.0 | 6.0 | 0.00 | 0.00 | 0.04 | 53 | 1012.8 |
| 20260506183351 | 56 | 309 | 3.0 | 6.0 | 0.00 | 0.00 | 0.04 | 54 | 1012.8 |
| 20260506182853 | 57 | 298 | 0.0 | 12.0 | 0.00 | 0.00 | 0.04 | 55 | 1012.8 |
| 20260506182351 | 56 | 25 | 4.0 | 11.0 | 0.00 | 0.00 | 0.04 | 55 | 1012.8 |
| 20260506181355 | 56 | 45 | 7.0 | 15.0 | 0.00 | 0.00 | 0.04 | 56 | 1011.8 |
| 20260506180854 | 56 | 83 | 8.0 | 15.0 | 0.00 | 0.00 | 0.04 | 57 | 1011.8 |
| 20260506175858 | 56 | 28 | 11.0 | 16.0 | 0.00 | 0.00 | 0.04 | 59 | 1011.8 |
| 20260506175356 | 56 | 55 | 9.0 | 12.0 | 0.00 | 0.00 | 0.04 | 60 | 1011.8 |
| 20260506174355 | 56 | 35 | 8.0 | 13.0 | 0.04 | 0.00 | 0.04 | 62 | 1011.8 |
| 20260506173854 | 56 | 8 | 10.0 | 11.0 | 0.04 | 0.00 | 0.04 | 63 | 1011.8 |
| 20260506173356 | 56 | 32 | 7.0 | 13.0 | 0.04 | 0.00 | 0.04 | 64 | 1012.8 |
| 20260506172352 | 55 | 34 | 5.0 | 11.0 | 0.04 | 0.00 | 0.04 | 65 | 1012.8 |
| 20260506171849 | 55 | 31 | 5.0 | 14.0 | 0.04 | 0.00 | 0.04 | 66 | 1011.8 |
| 20260506171351 | 55 | 4 | 9.0 | 15.0 | 0.04 | 0.00 | 0.04 | 66 | 1011.8 |
| 20260506170849 | 55 | 34 | 10.0 | 12.0 | 0.04 | 0.00 | 0.04 | 67 | 1011.8 |
| 20260506170351 | 55 | 20 | 7.0 | 11.0 | 0.04 | 0.00 | 0.04 | 70 | 1011.8 |
| 20260506165853 | 56 | 48 | 6.0 | 11.0 | 0.04 | 0.00 | 0.04 | 71 | 1011.8 |
| 20260506165353 | 56 | 229 | 6.0 | 11.0 | 0.04 | 0.00 | 0.04 | 72 | 1011.8 |
| 20260506164854 | 56 | 2 | 7.0 | 12.0 | 0.04 | 0.00 | 0.04 | 72 | 1011.8 |
| 20260506164355 | 56 | 9 | 7.0 | 10.0 | 0.00 | 0.00 | 0.04 | 72 | 1011.8 |
| 20260506163855 | 56 | 49 | 7.0 | 14.0 | 0.00 | 0.00 | 0.04 | 71 | 1011.8 |
| 20260506163356 | 56 | 26 | 10.0 | 12.0 | 0.00 | 0.00 | 0.04 | 71 | 1012.8 |
| 20260506162858 | 56 | 29 | 7.0 | 12.0 | 0.00 | 0.00 | 0.04 | 72 | 1012.8 |
| 20260506162356 | 56 | 39 | 9.0 | 10.0 | 0.00 | 0.00 | 0.04 | 71 | 1012.8 |
| 20260506161853 | 56 | 315 | 5.0 | 11.0 | 0.00 | 0.00 | 0.04 | 73 | 1012.8 |
| 20260506161355 | 55 | 2 | 6.0 | 12.0 | 0.00 | 0.00 | 0.04 | 73 | 1012.8 |
| 20260506160854 | 56 | 293 | 7.0 | 14.0 | 0.00 | 0.00 | 0.04 | 74 | 1012.8 |
| 20260506160356 | 56 | 5 | 8.0 | 12.0 | 0.00 | 0.00 | 0.04 | 74 | 1011.8 |
| 20260506155858 | 56 | 35 | 7.0 | 12.0 | 0.00 | 0.00 | 0.04 | 76 | 1011.8 |
| 20260506155356 | 56 | 32 | 7.0 | 10.0 | 0.00 | 0.00 | 0.04 | 77 | 1011.8 |
| 20260506154858 | 56 | 58 | 5.0 | 10.0 | 0.00 | 0.00 | 0.00 | 79 | 1011.8 |
| 20260506154400 | 57 | 37 | 7.0 | 11.0 | 0.00 | 0.00 | 0.00 | 80 | 1011.8 |
| 20260506153859 | 57 | 333 | 6.0 | 12.0 | 0.00 | 0.00 | 0.00 | 80 | 1011.8 |
| 20260506153401 | 57 | 356 | 11.0 | 14.0 | 0.00 | 0.00 | 0.00 | 80 | 1011.8 |
| 20260506152902 | 57 | 18 | 7.0 | 12.0 | 0.00 | 0.00 | 0.00 | 80 | 1011.8 |
| 20260506152401 | 56 | 10 | 10.0 | 14.0 | 0.00 | 0.00 | 0.00 | 80 | 1011.8 |
| 20260506151858 | 56 | 21 | 7.0 | 9.0 | 0.00 | 0.00 | 0.00 | 79 | 1012.8 |
| 20260506151356 | 56 | 351 | 7.0 | 9.0 | 0.00 | 0.00 | 0.00 | 78 | 1012.8 |
| 20260506150855 | 55 | 271 | 6.0 | 6.0 | 0.00 | 0.00 | 0.00 | 76 | 1012.8 |
| 20260506150356 | 55 | 289 | 3.0 | 6.0 | 0.00 | 0.00 | 0.00 | 75 | 1011.8 |
| 20260506145834 | 55 | 289 | 6.0 | 12.0 | 0.00 | 0.00 | 0.00 | 73 | 1011.8 |